THOR BURNER 2 R/B, 2985

Orbit data source: Space-Track

THOR BURNER 2 R/B, 2985 is space debris in SSO originally from a launch on Wed, 11 Oct 1967 UTC launched from the Air Force Western Test Range (AFWTR). Debris objects in space refer to the collection of defunct objects orbiting the Earth. Examples of debris include non-operational satellites, rocket bodies, and fragments generated from explosions, collisions, or faulty payload assembly.

Loading next visibility...
Identifier
2985, 1967-096B
Orbit
SSO
Country
Flag of USUS
Related business
Manufacturer
Thiokol/TE
Mission
Spacecraft
Bus & Motor
STAR 37, Unknown motor
Mass
154 kg wet, 154 kg dry
Launch date (UTC)
1967-10-11 (59 years ago)
Launch vehicle
Unknown
Launch site
Air Force Western Test Range (AFWTR)
Object type
Payload
Rocket body
Debris
Shape & HBR
FRUST, 1.1 m
Radar Cross Section
Large (>1 m²)

Expand to show TLE details & history
Last TLE update: 20 hours ago

TLE from 20 hours ago
0 THOR BURNER 2 R/B
1 02985U 67096B   26262.40714096  .00000388  00000-0  72384-4 0  9998
2 02985  99.1512 309.1998 0082909 135.6305 225.1580 14.69641456107033
Epoch: 2026-09-19T09:46Z
TLE epoch observation values (Epoch: 2026-09-19T09:46:16.978Z)
Latitude
-0.00012°
Longitude
164.31296°
Altitude
706.591 km
Speed
7.48 km/s
True Right ascension
20h 36m 47s
True Declination
0° 00' 00"
Sunlit
Object was in full shadow at epoch
Visualization orbit readout
Latitude
Unknown
Longitude
Unknown
Altitude
Unknown
Speed
Unknown
Apparent Right ascension
Unknown
Apparent Declination
Unknown
Sunlit
N/A
Visualization observer readout
Local Sidereal Time
22:32:16
Azimuth
Unknown
Elevation
Unknown
Doppler factor
Unknown
Orbital elements
Apogee altitude
717.674 km
Perigee altitude
600.98 km
Semi-major axis
7,037.464 km
Eccentricity
0.00829
Inclination
99.1512°
RAAN
309.1998°
Arg. of periapsis
135.6305°
True anomaly
224.48925°
Mean anomaly
225.158°
Eccentric anomaly
224.82314°
Mean motion
3.67637 °/min
Orbital period
97.92 mins
BSTAR
0.000072384
Loading maneuver chart data...
Computing Atmospheric mass density...
Loading historical data...
Loading historical data...
Loading historical data...
Loading historical data...
Loading historical data...
Loading historical data...
Loading historical data...
Other satellites on launch #96 in the year 1967 (1967-10-11 UTC)

Documentation

Showing up to 5 results
|